Regional Weather Roundup
Issued by NWS

Home | Current Version | Previous Version | Graphics & Text | Print | Product List | Glossary On
Versions: 1 2 3 4 5 6 7 8 9 10 11 12 13 14 15 16 17 18 19 20 21 22 23 24 25 26 27 28 29 30 31 32 33 34 35 36 37 38 39 40 41 42 43 44 45 46 47 48 49 50
000
ASUS43 KDTX 240301
RWRMI
MICHIGAN HOURLY REGIONAL WEATHER ROUNDUP
NATIONAL WEATHER SERVICE DETROIT/PONTIAC MI
1100 PM EDT WED APR 23 2014

NOTE: "FAIR" INDICATES FEW OR NO CLOUDS BELOW 12,000 FEET WITH NO
SIGNIFICANT WEATHER AND/OR OBSTRUCTION TO VISIBILITY.

MIZ047>049-052>055-059>063-066>070-074>076-081>083-240400-
SOUTHEAST LOWER MICHIGAN

CITY           SKY/WX    TMP DP  RH WIND       PRES   REMARKS
ADRIAN         CLOUDY    48  18  30 E9        30.12R
ALMA           MOCLDY    43  30  62 NE8       30.11S
ANN ARBOR      CLOUDY    41  21  44 CALM      30.12R
BAD AXE        CLEAR     31  24  74 CALM      30.14S
CARO           PTCLDY    40  24  52 E3        30.13S
DETROIT CITY   PTCLDY    44  27  51 E7        30.14R
DETROIT        MOCLDY    46  27  47 CALM      30.13S
FLINT          MOCLDY    46  16  30 CALM      30.12R
GROSSE ILE     PTCLDY    45  32  61 CALM      30.12R
HILLSDALE      CLOUDY    48  20  32 CALM      30.11R
HOWELL         CLOUDY    43  19  38 CALM      30.10S

CITY           SKY/WX    TMP DP  RH WIND       PRES   REMARKS
JACKSON        CLOUDY    47  23  38 SE6       30.11R
LAMBERTVILLE   MOCLDY    46  34  61 SE3       30.13S
LANSING        CLOUDY    48  26  42 W5        30.11R
LAPEER         FAIR      38  25  59 CALM      30.13S
MASON          CLOUDY    44  27  50 CALM      30.11R
MONROE         PTCLDY    43  36  75 CALM      30.11S
MT. CLEMENS    PTCLDY    35  18  49 NE7       30.12S WCI  30
PONTIAC        MOCLDY    42  21  43 CALM      30.11R
PORT HOPE        N/A     32  23  69 SW3       30.12R
PORT HURON     MOCLDY    32  27  80 CALM      30.15R
TRI CITIES     MOCLDY    43  25  49 E8        30.13R
TROY           PTCLDY    44  23  43 E8        30.13S
SAGINAW HB     MOCLDY    41  27  56 E9        30.12R
YPSILANTI      MOCLDY    44  29  55 SE8       30.12S
$$
MIZ043>046-050>051-056>058-064>065-071>073-077>080-240400-
SOUTHWEST LOWER MICHIGAN

CITY           SKY/WX    TMP DP  RH WIND       PRES   REMARKS
BATTLE CREEK   CLOUDY    48  31  51 NW5       30.11S
BENTON HARBOR  CLOUDY    39  25  57 CALM      30.11F
BIG RAPIDS     MOCLDY    42  16  35 CALM      30.10S
COLDWATER      CLOUDY    48  21  34 E3        30.10F
FREMONT        FAIR      42  25  49 CALM      30.10F
HOLLAND        CLOUDY    46  23  40 CALM      30.11F
GRAND RAPIDS   CLOUDY    48  26  42 NW3       30.11S
IONIA          FAIR      46  28  48 W7        30.10S
KALAMAZOO      CLOUDY    48  29  47 N5        30.11S
LUDINGTON      MOCLDY    37  27  69 CALM      30.11F
MARSHALL       CLOUDY    46  22  39 CALM      30.10S
MOUNT PLEASANT MOCLDY    42  24  49 NE8       30.11R
MUSKEGON       CLOUDY    44  30  57 CALM      30.11F
SOUTH HAVEN    CLOUDY    40  26  57 CALM      30.11F
$$
MIZ016>042-240400-
NORTHERN LOWER MICHIGAN

CITY           SKY/WX    TMP DP  RH WIND       PRES   REMARKS
ALPENA         PTCLDY    37  19  48 NW3       30.13R
BEAVER ISLAND  CLOUDY    31  23  73 CALM      30.14S
BELLAIRE       CLOUDY    35  27  73 CALM      30.14F
CADILLAC       MOCLDY    37  20  51 NE3       30.10S
CHARLEVOIX     CLOUDY    34  24  66 CALM      30.18R
FRANKFORT      CLOUDY    37  25  63 CALM      30.12F
GAYLORD        MOCLDY    37  16  42 CALM      30.12R
GRAYLING       CLOUDY    35  22  60 CALM      30.13S
HARBOR SPRINGS MOCLDY    31  26  84 CALM      30.14S
HOUGHTON LAKE  MOCLDY    40  22  48 NE3       30.12R
MANISTEE       CLOUDY    41  18  38 E8        30.12S
OSCODA         PTCLDY    30  19  64 CALM      30.14R
PELLSTON       MOCLDY    31  23  72 CALM      30.14S
ROGERS CITY    PTCLDY    36  23  59 W5        30.14S WCI  32
TRAVERSE CITY  CLOUDY    37  25  61 CALM      30.12F
$$
MIZ007>008-015-240400-
EASTERN UPPER MICHIGAN

CITY           SKY/WX    TMP DP  RH WIND       PRES   REMARKS
KINROSS        PTCLDY    34  27  75 NW6       30.12S WCI  29
MACKINAC ISLAN MOCLDY    32  23  70 W6        30.14S WCI  27
NEWBERRY       CLOUDY    33  25  71 CALM      30.13S
S. S. MARIE    CLEAR     35  25  66 NW6       30.12S WCI  30
MUNISING         N/A     34  25  69 S3        30.12S
$$
MIZ004>006-011>014-085-240400-
CENTRAL UPPER MICHIGAN

CITY           SKY/WX    TMP DP  RH WIND       PRES   REMARKS
MANISTIQUE     CLOUDY    30  26  83 CALM      30.13S
ESCANABA       CLOUDY    34  21  60 CALM      30.12S
MENOMINEE      MOCLDY    37  18  44 CALM      30.10F
SAWYER-GWINN   CLOUDY    40  21  46 CALM      30.10S
$$
MIZ001>003-009>011-084-240400-
WESTERN UPPER MICHIGAN

CITY           SKY/WX    TMP DP  RH WIND       PRES   REMARKS
IRON MOUNTAIN  CLOUDY    42  14  32 SE6       30.08R
HOUGHTON       CLOUDY    36  18  48 E9        30.08F WCI  29
COPPER HARBOR    N/A     37  20  50 VRB7      30.09R WCI  32
IRONWOOD       CLOUDY    48  21  34 S6        29.99R
$$

ABBREVIATIONS USED IN REMARKS
   TC - TEMPERATURE IN CELSIUS
  WCI - WIND CHILL INDEX
   HX - HEAT INDEX
  VSB - VISIBILITY




USA.gov is the U.S. government's official web portal to all federal, state and local government web resources and services.